Погода в Усть-Соболевке

Россия / Приморский край     46°10′20″N   138°00′29″E
темп.,
°C
ветер,
м/с
пор.,
м/с
влажн.,
%
обл.,
%
осадки,
мм/ч
давл.,
гПа
погр.,
м
23 июня, ср
ср2301:00+13з22705 0.0 101021
04:00+13з22715 0.0 101022
07:00+17з22670 0.0 101075
10:00+24ю23430 0.0 1010590
13:00+25ю45360 0.0 1009767
16:00+23ю474130 0.0 1009532
19:00+19ююв12665 0.0 100980
22:00+14зюз22825 0.0 100928
24 июня, чт
чт2401:00+13зюз22815 0.0 100921
04:00+13зюз22800 0.0 100820
07:00+17юз12710 0.0 100996
10:00+23ююв32524 0.0 1008519
13:00+22ююв34525 0.0 1009640
16:00+21ю45566 0.0 1008537
19:00+17ююв23725 0.0 1008200
22:00+11зюз11966 0.0 100921
25 июня, пт
пт2501:00+11зюз11968 0.0 100924
04:00+12зюз229655 0.0 100826
07:00+16юз128368 0.0 1008113
10:00+21ю345976 0.0 1007545
13:00+23ю455545 0.0 1005511
16:00+18ю248284 0.5 1005160
19:00+20ююз23799 0.1 1005124
22:00+17з229211 0.1 100632
26 июня, сб
сб2601:00+17з22889 0.0 100628
04:00+17з22865 0.0 100640
07:00+20з23755 0.0 1007115
10:00+28зюз26427 0.0 10071388
13:00+25в335215 0.0 1007574
16:00+19всв337551 0.1 1009396
19:00+14в2392100 0.1 1011211
22:00+13св1297100 0.1 101276
27 июня, вс
вс2701:00+12всв1199100 0.0 101325
04:00+12вюв0199100 0.0 101271
07:00+13вюв1195100 0.0 1013206
10:00+16юв2180100 0.0 1012504
13:00+18юв3267100 0.0 1011617
16:00+18юв326699 0.0 1010577
19:00+16вюв2179100 0.0 1010176
22:00+12сз119899 0.0 101013